Location: Newark
(13.6797°N, 8.5297°E)
Time: 15:39:29
(UTC+00:00)

Altair - Pass Details

Date: 31 January 2020
Orbit: 1502 x 1682 km, 47.2° (Epoch: 24 February)

Event Time Altitude Azimuth Distance (km) Brightness Sun altitude
Rises 15:47:09 0° 300° (WNW) 4,885 10.6 21.4°
Reaches altitude 10° 15:50:51 10° 290° (WNW) 3,875 10.4 20.6°
Maximum altitude 15:59:00 30° 233° (SW) 2,584 10.7 18.8°
Drops below altitude 10° 16:06:56 10° 176° (S) 3,753 9.9 17.0°
Sets 16:10:30 0° 166° (SSE) 4,709 10.2 16.2°
